Wind_Speed
46 45 45 44 44 42 41 40 39 37 36 34 33 32 32 31 31 32 34 33 31 29 28 26 24 22 22 22 23 24 25 25 25 26 27 26 24 22 21 20 20 20 20
41 41 40 40 39 37 36 35 35 34 33 31 31 30 30 30 29 28 26 26 25 24 23 23 22 22 23 23 23 24 24 25 24 24 25 25 24 23 21 21 21 20 20
39 39 38 37 36 35 34 34 33 33 32 31 30 29 29 28 27 27 26 26 25 24 23 23 24 24 25 25 25 26 26 25 25 24 24 25 25 24 23 22 22 21 20
37 36 36 35 35 34 34 34 34 34 33 32 32 31 30 29 28 27 27 26 26 26 26 26 26 27 27 27 27 28 28 27 26 25 25 25 25 24 24 24 23 22 21
34 33 33 33 33 34 34 35 35 36 36 36 36 35 34 33 32 31 30 29 30 30 30 30 30 30 30 29 29 29 29 29 28 27 26 26 25 25 25 26 25 25 24
32 31 32 32 33 34 35 36 37 38 38 39 39 40 40 39 39 38 37 36 35 35 35 35 34 34 34 33 32 31 31 30 29 28 27 27 26 26 25 26 26 26 27
32 32 32 33 34 35 36 37 38 38 39 40 41 42 43 43 43 43 43 42 42 41 41 40 39 38 37 36 35 33 32 31 30 29 28 27 27 26 26 26 27 27 28
30 31 31 33 34 35 36 37 38 39 40 41 42 43 44 44 45 45 45 45 45 44 44 43 42 41 40 39 37 35 34 33 32 31 30 30 29 28 28 28 29 29 29
28 29 30 31 32 33 34 35 36 37 39 39 40 40 41 41 42 43 43 43 42 42 42 41 41 41 40 39 38 37 36 35 34 34 34 33 33 32 32 32 31 31 31
26 26 27 28 29 31 32 33 34 35 35 35 35 36 37 36 36 36 36 36 36 37 37 37 37 37 38 38 38 38 38 37 37 37 36 36 36 36 35 34 33 32 31
22 24 25 26 28 29 30 30 30 30 30 30 30 30 30 29 29 29 29 30 30 31 32 31 33 35 36 37 38 39 40 39 39 39 38 37 36 36 35 35 34 34 32
22 23 24 25 25 26 26 26 26 26 25 25 25 25 24 24 24 24 24 25 25 26 26 27 28 30 32 34 37 39 40 41 40 40 39 38 37 37 37 36 35 34 34
21 22 22 22 23 23 23 23 24 24 24 24 24 25 25 25 25 24 25 25 26 25 25 24 25 25 27 29 31 34 36 38 40 41 41 41 40 39 39 39 38 37 36
18 19 19 20 21 21 21 22 22 23 24 25 26 26 27 28 28 29 28 28 28 28 27 27 26 26 25 25 27 28 31 33 35 36 39 41 42 41 40 39 38 37 37
15 16 17 18 19 20 21 22 23 25 26 27 28 30 30 30 31 32 33 32 33 33 32 32 32 31 31 30 29 28 28 28 28 30 31 33 36 39 41 41 41 40 40
12 13 15 16 18 19 21 22 23 25 27 28 30 31 31 32 33 34 35 36 37 37 37 37 37 37 36 35 34 33 33 32 30 29 27 27 28 30 33 36 38 40 41
13 14 15 16 17 18 20 21 23 25 27 29 30 31 32 33 33 34 35 36 37 38 38 39 39 39 39 38 37 37 37 37 36 34 32 30 28 27 26 27 29 32 35
14 15 16 16 18 19 20 22 24 25 26 27 28 28 29 30 31 32 32 34 35 36 37 38 39 40 40 40 39 39 39 39 39 38 37 36 35 33 30 28 27 26 27
16 16 17 18 19 20 21 23 25 26 28 29 28 26 26 27 28 29 30 31 33 34 36 37 38 39 40 40 41 41 41 42 42 42 42 41 40 39 38 36 33 30 29
17 18 18 18 19 19 20 22 24 25 26 27 29 28 28 28 30 31 32 33 33 34 34 35 36 38 39 40 40 40 41 42 43 44 45 45 45 44 43 42 40 38 35
18 18 18 18 19 19 20 21 23 24 25 26 27 28 29 31 32 34 35 35 35 35 34 34 35 36 37 38 38 39 40 41 42 44 45 46 47 47 47 47 46 45 42
18 18 19 19 19 19 19 21 22 23 24 25 27 28 28 30 32 33 34 34 34 33 33 33 33 34 34 34 35 36 37 38 39 40 41 43 45 46 47 49 50 50 49
20 19 19 19 19 19 19 21 22 24 25 26 28 29 30 32 33 33 33 33 33 32 32 31 31 31 32 31 32 33 34 35 36 37 38 40 42 44 46 48 50 51 51
21 21 20 20 19 20 21 22 23 25 26 28 29 30 32 33 34 34 34 32 32 32 31 31 30 30 29 29 29 29 30 31 33 34 35 37 39 41 43 45 46 48 49
22 21 21 20 21 21 22 24 25 26 28 29 30 31 33 34 35 35 35 33 32 31 31 31 30 30 29 28 27 26 26 27 28 30 31 33 35 37 39 41 42 44 45
22 22 21 21 21 22 23 25 27 28 29 30 31 33 35 35 36 36 36 34 33 32 31 30 30 30 29 27 26 25 24 24 24 26 27 29 31 33 35 37 39 40 42
Wind_Direction
269 270 271 273 274 275 277 278 279 280 281 282 282 279 276 275 271 266 262 259 258 259 261 263 263 265 268 269 271 273 275 276 277 278 280 283 285 283 281 279 282 286 288
269 270 272 273 274 274 275 275 277 278 280 281 281 281 282 281 280 279 276 271 266 264 264 264 267 271 272 271 271 273 276 278 279 279 279 280 281 280 277 276 279 282 284
268 269 270 271 272 272 273 274 275 277 278 279 279 282 283 284 283 282 282 280 277 273 271 269 270 273 274 274 274 274 276 278 280 280 280 280 280 278 274 273 275 279 282
267 268 268 269 270 271 272 273 274 275 275 276 276 278 280 282 282 282 281 280 279 278 276 274 273 274 275 275 275 274 274 276 278 279 279 279 277 276 273 270 272 274 277
266 267 268 268 269 271 273 274 275 275 275 275 275 276 277 278 278 279 279 279 278 278 278 278 278 277 277 277 276 275 274 274 275 276 277 277 275 273 270 269 269 270 272
264 265 267 269 271 272 274 276 276 275 275 275 274 274 275 276 277 276 277 278 278 277 278 278 279 279 279 279 278 276 274 272 272 273 273 273 271 270 269 266 267 267 270
264 266 269 272 274 275 276 277 277 277 277 276 276 275 275 275 275 275 275 275 276 277 277 277 277 278 278 278 277 275 273 270 269 270 269 268 266 264 264 263 262 265 267
264 268 272 275 276 277 278 279 279 279 279 279 279 278 277 277 277 277 277 277 277 277 277 276 276 275 275 274 273 271 269 267 265 264 264 262 261 260 259 259 260 263 266
268 272 274 276 278 279 280 281 281 282 282 282 282 281 280 280 280 279 279 278 277 277 276 275 274 272 271 270 268 266 264 262 260 259 259 259 258 258 258 258 259 262 265
271 274 276 278 280 282 283 284 284 285 285 284 283 283 283 282 282 281 279 278 277 275 274 272 269 266 265 263 262 261 259 258 257 257 257 257 258 258 258 258 258 260 261
272 276 280 283 285 286 286 287 288 288 287 286 285 285 284 284 283 282 282 281 279 278 275 271 267 264 261 259 259 258 257 256 255 256 256 256 257 258 258 258 257 257 257
277 282 285 286 287 288 288 288 288 288 288 287 286 286 286 284 283 282 283 283 282 282 280 277 272 268 266 263 260 259 257 256 255 256 256 254 255 256 256 256 256 255 254
283 285 286 287 288 288 288 289 288 287 286 286 286 285 285 283 282 282 282 282 282 282 280 279 278 276 273 270 267 264 260 258 257 257 257 256 255 255 256 256 256 254 252
287 287 287 288 290 291 292 291 290 290 288 287 286 286 285 283 282 280 280 279 279 278 277 276 276 277 277 276 274 271 268 265 262 260 258 256 255 255 255 255 255 253 250
292 291 291 291 291 292 293 293 293 292 291 292 289 288 286 284 283 282 281 279 277 277 276 275 274 273 273 273 274 274 273 272 269 265 262 259 257 256 255 254 253 252 251
301 299 298 298 298 298 298 297 297 296 296 295 293 291 289 287 285 283 282 281 281 280 278 276 275 274 273 271 270 269 269 269 269 268 266 263 261 259 257 255 253 252 251
304 302 302 301 302 304 304 304 304 303 302 300 298 296 294 291 289 287 286 285 283 282 281 279 277 275 273 272 270 267 266 265 265 264 265 264 263 262 261 259 256 254 252
303 302 302 302 304 306 307 307 308 308 307 306 305 304 302 300 298 296 294 292 290 288 286 283 280 278 275 273 270 267 264 263 262 261 260 259 259 260 260 260 258 256 255
301 302 303 305 307 309 311 313 316 318 318 317 317 316 313 310 308 306 304 301 298 295 292 289 285 282 279 275 272 268 265 262 260 258 256 253 253 255 256 255 256 254 253
298 299 302 305 307 310 314 319 322 324 324 323 323 324 323 321 318 316 314 312 309 305 300 295 291 286 282 279 275 271 267 264 260 257 255 253 252 251 251 251 251 251 251
295 297 298 301 306 310 316 321 324 325 326 325 324 324 323 322 321 319 318 317 315 312 308 303 298 293 288 283 278 274 270 265 262 259 257 255 253 251 250 248 248 247 247
291 293 295 299 303 307 313 319 323 325 325 324 324 323 323 322 321 320 320 320 320 318 315 311 306 300 295 289 283 277 273 269 265 262 259 256 254 252 250 249 248 247 247
288 290 291 294 297 303 309 315 319 322 323 323 323 323 324 324 325 324 323 322 322 322 321 319 316 310 304 297 290 283 278 273 269 264 261 258 256 253 252 251 250 249 248
284 287 289 291 293 298 303 308 312 316 319 321 322 323 324 324 324 324 323 322 322 323 323 323 323 320 315 308 300 292 284 278 273 269 265 261 257 255 253 252 251 250 250
281 283 285 287 290 294 298 304 308 312 315 319 321 323 324 324 324 324 323 322 321 322 323 324 325 325 322 317 311 303 294 287 280 275 269 264 260 257 254 252 251 250 249
277 279 281 283 286 290 295 300 304 309 314 318 320 322 323 323 323 323 323 321 319 319 320 322 323 324 324 322 318 312 304 296 289 282 275 269 264 260 256 254 251 250 249
Height
5794 5794 5794 5794 5794 5794 5794 5793 5793 5792 5791 5791 5790 5789 5788 5787 5786 5786 5785 5785 5786 5786 5787 5789 5789 5790 5792 5793 5794 5795 5795 5795 5795 5795 5794 5793 5793 5794 5794 5794 5794 5794 5794
5784 5785 5785 5785 5785 5785 5785 5785 5785 5784 5784 5783 5782 5782 5781 5780 5780 5779 5779 5778 5779 5779 5780 5781 5783 5784 5785 5786 5787 5788 5788 5788 5788 5788 5787 5787 5787 5787 5788 5789 5789 5789 5789
5775 5776 5776 5776 5776 5777 5777 5777 5777 5777 5776 5776 5776 5775 5775 5774 5774 5773 5773 5773 5773 5773 5774 5775 5776 5778 5779 5779 5780 5780 5781 5781 5781 5781 5781 5781 5781 5781 5782 5783 5784 5784 5784
5766 5767 5768 5768 5768 5768 5768 5768 5768 5768 5768 5768 5768 5768 5768 5768 5767 5767 5767 5767 5767 5767 5767 5768 5770 5771 5771 5772 5773 5773 5773 5774 5774 5774 5775 5775 5774 5774 5776 5777 5778 5778 5779
5758 5758 5759 5759 5760 5760 5760 5760 5760 5760 5760 5760 5760 5760 5760 5760 5760 5760 5760 5760 5760 5760 5761 5761 5762 5763 5763 5764 5764 5765 5765 5766 5766 5767 5768 5768 5767 5768 5769 5770 5772 5772 5773
5749 5750 5750 5751 5751 5751 5751 5751 5751 5751 5751 5751 5751 5751 5751 5751 5751 5751 5751 5752 5752 5752 5752 5753 5753 5753 5754 5754 5755 5756 5757 5757 5758 5759 5760 5760 5761 5761 5762 5764 5764 5765 5766
5741 5742 5743 5743 5743 5743 5742 5742 5741 5741 5740 5740 5740 5740 5740 5740 5740 5740 5740 5741 5741 5742 5742 5743 5743 5743 5744 5745 5745 5746 5747 5748 5749 5750 5751 5752 5753 5754 5755 5756 5757 5758 5759
5734 5734 5735 5735 5734 5734 5733 5733 5732 5731 5730 5730 5729 5729 5729 5729 5729 5729 5729 5729 5729 5730 5730 5731 5732 5733 5734 5734 5735 5736 5737 5738 5739 5740 5742 5743 5744 5745 5747 5749 5750 5751 5751
5726 5727 5727 5727 5726 5725 5725 5724 5723 5722 5721 5720 5719 5718 5718 5718 5717 5717 5717 5717 5717 5718 5718 5719 5720 5721 5722 5723 5724 5725 5727 5728 5729 5730 5731 5733 5734 5736 5738 5739 5741 5743 5744
5720 5720 5720 5719 5718 5718 5717 5716 5715 5713 5712 5711 5709 5708 5708 5708 5707 5706 5706 5706 5705 5706 5707 5707 5708 5708 5710 5711 5712 5714 5715 5716 5718 5719 5721 5722 5724 5726 5728 5730 5732 5734 5735
5714 5714 5713 5713 5712 5710 5709 5708 5707 5705 5704 5702 5701 5700 5700 5699 5698 5697 5696 5696 5695 5695 5696 5697 5696 5696 5697 5699 5700 5702 5703 5705 5706 5708 5710 5712 5714 5716 5718 5719 5721 5724 5726
5708 5708 5707 5706 5705 5704 5703 5702 5700 5699 5698 5696 5695 5694 5693 5692 5692 5691 5690 5689 5688 5687 5687 5686 5686 5686 5686 5687 5688 5690 5691 5693 5695 5697 5699 5701 5704 5706 5707 5708 5711 5713 5716
5702 5702 5701 5700 5699 5698 5697 5696 5695 5693 5692 5691 5690 5689 5688 5686 5685 5684 5683 5682 5681 5680 5679 5678 5678 5677 5677 5677 5678 5679 5680 5681 5683 5685 5687 5689 5691 5693 5695 5697 5700 5702 5705
5697 5697 5696 5695 5694 5693 5692 5691 5690 5688 5687 5685 5684 5682 5681 5680 5678 5677 5676 5675 5673 5672 5672 5671 5671 5670 5670 5669 5669 5669 5670 5671 5672 5673 5674 5676 5678 5681 5683 5686 5688 5690 5693
5692 5692 5691 5690 5689 5688 5687 5686 5684 5683 5681 5679 5677 5675 5674 5672 5670 5669 5667 5666 5664 5663 5662 5662 5662 5661 5661 5661 5661 5661 5661 5662 5662 5663 5664 5665 5666 5668 5670 5672 5675 5678 5681
5689 5688 5687 5686 5685 5683 5682 5680 5679 5677 5674 5672 5670 5668 5665 5663 5661 5659 5657 5655 5654 5652 5651 5651 5650 5650 5650 5650 5651 5651 5652 5652 5653 5653 5654 5655 5656 5657 5658 5660 5662 5665 5668
5686 5685 5683 5682 5680 5679 5677 5675 5673 5671 5668 5665 5662 5659 5657 5654 5651 5649 5647 5645 5643 5641 5639 5638 5637 5637 5637 5638 5638 5639 5640 5640 5642 5643 5644 5646 5647 5648 5649 5650 5652 5654 5656
5682 5681 5679 5678 5676 5674 5672 5670 5667 5665 5662 5659 5656 5652 5648 5645 5642 5640 5637 5634 5632 5629 5627 5626 5624 5624 5623 5623 5624 5625 5626 5627 5628 5630 5633 5634 5636 5638 5640 5642 5643 5645 5647
5678 5677 5675 5673 5671 5669 5666 5664 5661 5657 5654 5650 5648 5645 5642 5638 5634 5631 5628 5625 5622 5619 5616 5613 5611 5610 5609 5608 5609 5610 5611 5613 5614 5616 5619 5621 5623 5626 5629 5631 5634 5636 5638
5673 5671 5670 5668 5666 5664 5661 5658 5655 5652 5648 5644 5640 5637 5634 5630 5626 5623 5619 5615 5611 5608 5604 5601 5598 5596 5594 5593 5593 5594 5595 5596 5598 5600 5603 5606 5609 5612 5615 5618 5621 5625 5627
5668 5666 5664 5662 5660 5658 5656 5653 5650 5646 5643 5639 5635 5632 5627 5623 5619 5614 5610 5605 5601 5596 5593 5589 5586 5583 5580 5579 5578 5578 5579 5579 5581 5583 5586 5589 5593 5596 5600 5603 5607 5610 5614
5662 5660 5659 5657 5655 5653 5650 5648 5645 5641 5638 5634 5630 5627 5623 5618 5613 5608 5602 5597 5592 5587 5583 5579 5575 5571 5568 5566 5565 5564 5563 5564 5566 5568 5570 5573 5576 5579 5582 5586 5590 5594 5598
5655 5654 5653 5651 5649 5647 5645 5642 5639 5636 5633 5629 5625 5620 5615 5611 5606 5600 5595 5589 5584 5580 5575 5570 5566 5561 5557 5555 5553 5551 5551 5551 5551 5553 5555 5557 5560 5562 5565 5569 5574 5577 5582
5648 5647 5646 5644 5643 5641 5639 5637 5634 5630 5627 5623 5619 5614 5609 5604 5599 5593 5588 5583 5578 5573 5568 5563 5558 5554 5549 5545 5542 5540 5539 5538 5538 5540 5541 5543 5544 5547 5550 5554 5558 5561 5565
5641 5640 5639 5638 5636 5634 5632 5630 5627 5624 5621 5617 5612 5607 5603 5597 5592 5586 5581 5576 5571 5566 5561 5556 5551 5547 5542 5538 5534 5532 5529 5528 5527 5527 5528 5529 5531 5533 5536 5539 5542 5546 5550
5634 5633 5632 5631 5629 5628 5626 5623 5621 5617 5614 5610 5605 5601 5596 5590 5585 5580 5574 5569 5564 5560 5555 5550 5545 5540 5536 5531 5527 5524 5522 5520 5518 5517 5517 5517 5519 5520 5522 5525 5528 5531 5534